Home   Weather   St. Peter Port   Past weeks

Flag for Guernsey Past Weather in St. Peter Port, Guernsey — Yesterday and Last 2 Weeks

Now
63 °F

Fog.


Feels Like: 63 °F
Forecast: 64 / 74 °F
Wind: 13 mph from Southwest

Location: Cherbourg / Maupertus

Current Time: Aug 21, 2017 at 3:39:30 am

Latest Report: Aug 21, 2017 at 2:30 am


Visibility: 1 mi

Pressure: 30.18 "Hg

Humidity: 94%

Dew Point: 61 °F

Location of St. Peter PortLocation

Past Weather in St. Peter Port — Graph

°F

St. Peter Port Temperature Yesterday

Maximum temperature yesterday: 66 °F (at 1:00 pm)
Minimum temperature yesterday: 50 °F (at 6:30 am)
Average temperature yesterday: 59 °F

High & Low Weather Summary for the Past Weeks

 TemperatureHumidityPressure
High72 °F (Aug 14, 3:30 pm)100% (Aug 8, 1:00 am)30.30 "Hg (Aug 8, 1:00 am)
Low50 °F (Aug 9, 4:30 am)57% (Aug 14, 12:00 pm)29.89 "Hg (Aug 8, 4:00 am)
Average60 °F84%30.09 "Hg
* Reported Aug 6 2:00 am — Aug 21 2:00 am, St. Peter Port. Weather by CustomWeather, © 2017

Note: Actual official high and low records may vary slightly from our data, if they occured in-between our weather recording intervals... More about our weather records

Advertising

St. Peter Port Weather History for the Previous 24 Hours

Scroll right to see more
 ConditionsComfort  
Time TempWeatherWind HumidityBarometerVisibility
2:00 am
Mon, Aug 21
63 °FFog.13 mph94%30.18 "Hg1 mi
1:00 am61 °FLow clouds.14 mph100%30.18 "HgN/A
12:30 am61 °FMostly cloudy.13 mph94%30.18 "HgN/A
12:00 am59 °FLow clouds.14 mph100%30.18 "HgN/A
11:30 pm
Sun, Aug 20
59 °FLow clouds.14 mph100%30.21 "HgN/A
11:00 pm59 °FMostly cloudy.12 mph94%30.21 "Hg4 mi
10:30 pm57 °FLow clouds.10 mph100%30.21 "HgN/A
10:00 pm57 °FDrizzle. Overcast.9 mph94%30.21 "Hg5 mi
9:30 pm57 °FLight rain. Mostly cloudy.8 mph94%30.24 "Hg6 mi
9:00 pm59 °FMostly cloudy.9 mph82%30.21 "HgN/A
8:30 pm59 °FMostly cloudy.9 mph82%30.21 "HgN/A
8:00 pm59 °FMostly cloudy.7 mph82%30.24 "HgN/A
7:30 pm61 °FRain. Mostly cloudy.5 mph77%30.21 "Hg4 mi
7:00 pm63 °FOvercast.7 mph68%30.24 "HgN/A
6:30 pm63 °FOvercast.9 mph68%30.24 "HgN/A
6:00 pm63 °FMostly cloudy.9 mph64%30.24 "HgN/A
5:30 pm64 °FMostly cloudy.12 mph60%30.24 "HgN/A
5:00 pm64 °FMostly cloudy.10 mph60%30.27 "HgN/A
4:30 pm63 °FOvercast.12 mph59%30.27 "HgN/A
4:00 pm64 °FPassing clouds.10 mph60%30.27 "HgN/A
3:30 pm64 °FPassing clouds.10 mph60%30.27 "HgN/A
3:00 pm64 °FOvercast.10 mph60%30.27 "HgN/A
2:30 pm64 °FMostly cloudy.9 mph64%30.27 "HgN/A
2:00 pm64 °FMostly cloudy.7 mph68%30.30 "HgN/A
1:30 pm64 °FBroken clouds.10 mph68%30.30 "HgN/A
1:00 pm66 °FPartly sunny.9 mph64%30.30 "HgN/A
12:30 pm64 °FPartly sunny.10 mph64%30.30 "HgN/A
12:00 pm64 °FPartly sunny.9 mph64%30.30 "HgN/A
11:30 am64 °FMore clouds than sun.9 mph64%30.30 "HgN/A
11:00 am63 °FMostly cloudy.8 mph73%30.30 "HgN/A
10:30 am63 °FBroken clouds.10 mph68%30.30 "HgN/A
10:00 am61 °FOvercast.7 mph77%30.30 "HgN/A
9:30 am61 °FMostly cloudy.6 mph72%30.30 "HgN/A
9:00 am59 °FCloudy.5 mph77%30.27 "HgN/A
8:30 am59 °FMostly cloudy.5 mph82%30.27 "HgN/A
8:00 am59 °FPassing clouds.5 mph82%30.27 "HgN/A
7:30 am55 °FSunny.3 mph94%30.27 "Hg10 mi
7:00 am52 °FSunny.3 mph94%30.27 "Hg10 mi
6:30 am50 °FSunny.5 mph94%30.24 "Hg10 mi
6:00 am52 °FClear.6 mph88%30.24 "Hg10 mi
5:30 am52 °FPassing clouds.7 mph88%30.24 "HgN/A
5:00 am52 °FPassing clouds.7 mph88%30.24 "HgN/A
4:30 am52 °FPassing clouds.6 mph88%30.24 "HgN/A
4:00 am52 °FClear.7 mph88%30.24 "Hg10 mi
3:30 am52 °FClear.7 mph94%30.24 "Hg10 mi
3:00 am52 °FPassing clouds.8 mph94%30.24 "HgN/A
Weather by CustomWeather, © 2017

See weather overviewHow to use our weather pages